Tracking 18987 objects as of 24-Feb-2018
HD Live streaming from Space Station
objects crossing your sky now

NOAA 16 DEB

Track NOAA 16 DEB now!
10-day predictions


NORAD ID: 42352
Int'l Code: 2000-055QU
Perigee: 842.2 km
Apogee: 861.9 km
Inclination: 98.9 °
Period: 101.8 minutes
Semi major axis: 7223 km
RCS: Unknown
Launch date: September 21, 2000
Source: United States (US)
Launch site: AIR FORCE WESTERN TEST RANGE (AFWTR)

Note: This is SATELLITE DEBRIS
aabbcc
Your satellite tracking list
Your tracking list is empty




NASA's NSSDC Master Catalog

Two Line Element Set (TLE):
1 42352U 00055QU  18054.65549147 +.00003724 +00000-0 +19725-2 0  9997
2 42352 098.9173 132.3522 0013669 105.1796 255.0889 14.14242539097511
Source of the keplerian elements: AFSPC